Weather History for Shymkent, Kazakhstan

Change the Weather History Date:

Thursday, February 14, 2013

  Actual Average Record
Temperature  
Mean Temperature 38 °F -  
Max Temperature 51 °F - - ()
Min Temperature 26 °F - - ()
Degree Days  
Heating Degree Days 26    
Moisture  
Dew Point 22 °F    
Average Humidity 56    
Maximum Humidity 86    
Minimum Humidity 19    
Precipitation  
Precipitation 0.00 in - - ()
Sea Level Pressure  
Sea Level Pressure 30.21 in    
Wind  
Wind Speed 3 mph ()    
Max Wind Speed 9 mph    
Max Gust Speed -    
Visibility 3.4 miles    
Events      
T = Trace of Precipitation, MM = Missing Value Source: Averaged Metar Reports

Daily Weather History Graph

Daily Weather History Graph

Search for Another Location

Airport:

Trip Planner

Search our weather history database for the weather conditions in past years. The results will help you decide how hot, cold, wet, or windy it might be!

Date:

Astronomy

Feb. 14, 2013 Rise Set
Actual Time 8:20 AM ALMT 6:52 PM ALMT
Civil Twilight 7:51 AM ALMT 7:21 PM ALMT
Nautical Twilight 7:18 AM ALMT 7:54 PM ALMT
Astronomical Twilight 6:45 AM ALMT 8:27 PM ALMT
Moon 10:01 AM ALMT (2/14) 11:36 PM ALMT (2/14)
Length of Visible Light 11h 30m
Length of Day
10h 32m
Waxing Crescent, 18% of the Moon is Illuminated
Feb 14
Waxing Crescent
Feb 18
First Quarter
Feb 26
Full
Mar 5
Last Quarter
Mar 12
New

Hourly Weather History & Observations

Time (ALMT) Temp. Windchill Dew Point Humidity Pressure Visibility Wind Dir Wind Speed Gust Speed Precip Events Conditions
12:00 AM 34 °F - 26 °F 61% 30.23 in - SE 2.2 mph - -  
12:00 AM 32.0 °F - 23.0 °F 69% 30.15 in 1.2 mi East 2.2 mph - N/A   Scattered Clouds
12:30 AM 30.2 °F - 23.0 °F 75% 30.15 in 1.2 mi Calm Calm - N/A   Scattered Clouds
1:00 AM 30.2 °F - 23.0 °F 75% 30.15 in 1.2 mi East 2.2 mph - N/A   Scattered Clouds
1:30 AM 28.4 °F 23.4 °F 19.4 °F 69% 30.15 in 1.2 mi ESE 4.5 mph - N/A   Scattered Clouds
2:00 AM 28.4 °F 23.4 °F 19.4 °F 69% 30.15 in 1.2 mi SSE 4.5 mph - N/A   Scattered Clouds
2:30 AM 28.4 °F 23.4 °F 23.0 °F 80% 30.18 in 1.6 mi SSE 4.5 mph - N/A   Scattered Clouds
3:00 AM 30 °F - 25 °F 73% 30.25 in - SE 2.2 mph - -  
3:00 AM 28.4 °F 21.4 °F 23.0 °F 80% 30.18 in 1.6 mi SE 6.7 mph - N/A   Scattered Clouds
3:30 AM 28.4 °F - 23.0 °F 80% 30.18 in 1.6 mi East 2.2 mph - N/A   Scattered Clouds
4:00 AM 28.4 °F 23.4 °F 23.0 °F 80% 30.18 in 1.6 mi ESE 4.5 mph - N/A   Scattered Clouds
4:30 AM 26.6 °F - 23.0 °F 86% 30.18 in 3.1 mi ESE 2.2 mph - N/A   Scattered Clouds
5:00 AM 26.6 °F 21.3 °F 23.0 °F 86% 30.15 in 3.1 mi SE 4.5 mph - N/A   Scattered Clouds
5:30 AM 28.4 °F 23.4 °F 23.0 °F 80% 30.18 in 3.1 mi NE 4.5 mph - N/A   Scattered Clouds
6:00 AM 29 °F - 25 °F 80% 30.25 in - Calm Calm - -   Mist
6:00 AM 26.6 °F 21.3 °F 21.2 °F 80% 30.15 in 3.1 mi SSE 4.5 mph - N/A   Scattered Clouds
6:30 AM 28.4 °F 23.4 °F 23.0 °F 80% 30.18 in 3.1 mi East 4.5 mph - N/A   Scattered Clouds
7:00 AM 26.6 °F 21.3 °F 23.0 °F 86% 30.18 in 3.1 mi ESE 4.5 mph - N/A   Scattered Clouds
7:30 AM 24.8 °F 19.2 °F 21.2 °F 86% 30.18 in 3.1 mi SE 4.5 mph - N/A   Scattered Clouds
8:00 AM 26.6 °F 21.3 °F 21.2 °F 80% 30.18 in 5.0 mi SE 4.5 mph - N/A   Scattered Clouds
8:30 AM 24.8 °F 15.5 °F 19.4 °F 80% 30.18 in 5.0 mi ESE 8.9 mph - N/A   Scattered Clouds
9:00 AM 26 °F - 22 °F 78% 30.29 in 2 mi Calm Calm - -   Mist
9:00 AM 28.4 °F 21.4 °F 21.2 °F 74% 30.21 in 5.0 mi ESE 6.7 mph - N/A   Scattered Clouds
9:30 AM 32.0 °F 25.7 °F 24.8 °F 75% 30.21 in 5.0 mi SE 6.7 mph - N/A   Scattered Clouds
10:00 AM 35.6 °F - 26.6 °F 70% 30.21 in 5.0 mi Calm Calm - N/A   Scattered Clouds
10:30 AM 41.0 °F - 26.6 °F 57% 30.21 in 5.0 mi Variable 2.2 mph - N/A   Scattered Clouds
11:00 AM 41.0 °F - 24.8 °F 53% 30.21 in 5.0 mi Variable 2.2 mph - N/A   Scattered Clouds
11:30 AM 44.6 °F - 26.6 °F 49% 30.24 in - Variable 2.2 mph - N/A   Clear
12:00 PM 47 °F - 18 °F 19% 30.24 in 31 mi West 2.2 mph - -  
12:00 PM 44.6 °F 42.3 °F 24.8 °F 46% 30.24 in - WNW 4.5 mph - N/A   Clear
12:30 PM 46.4 °F 44.4 °F 23.0 °F 40% 30.24 in - NW 4.5 mph - N/A   Clear
1:00 PM 46.4 °F 44.4 °F 24.8 °F 43% 30.24 in - WNW 4.5 mph - N/A   Clear
1:30 PM 46.4 °F 43.0 °F 23.0 °F 40% 30.24 in - West 6.7 mph - N/A   Clear
2:00 PM 48.2 °F - 24.8 °F 40% 30.24 in - NW 6.7 mph - N/A   Clear
2:30 PM 48.2 °F - 26.6 °F 43% 30.21 in - WNW 4.5 mph - N/A   Clear
3:00 PM 49 °F - 23 °F 23% 30.22 in 31 mi NW 4.5 mph - -  
3:00 PM 50.0 °F - 21.2 °F 32% 30.21 in - West 4.5 mph - N/A   Clear
3:30 PM 51.8 °F - 21.2 °F 30% 30.21 in - Variable 2.2 mph - N/A   Clear
4:00 PM 51.8 °F - 21.2 °F 30% 30.21 in - WNW 4.5 mph - N/A   Clear
4:30 PM 51.8 °F - 21.2 °F 30% 30.21 in - WNW 4.5 mph - N/A   Clear
5:00 PM 51.8 °F - 17.6 °F 26% 30.21 in - NW 4.5 mph - N/A   Clear
5:30 PM 51.8 °F - 15.8 °F 24% 30.21 in - NNW 4.5 mph - N/A   Clear
6:00 PM 49 °F - 23 °F 23% 30.22 in 31 mi NNW 4.5 mph - -  
6:00 PM 51.8 °F - 15.8 °F 24% 30.21 in - NW 4.5 mph - N/A   Clear
6:30 PM 50.0 °F - 14.0 °F 24% 30.21 in - Calm Calm - N/A   Clear
7:00 PM 46.4 °F - 17.6 °F 32% 30.21 in - Variable 2.2 mph - N/A   Clear
7:30 PM 44.6 °F 39.8 °F 14.0 °F 29% 30.21 in 5.0 mi NE 8.9 mph - N/A   Unknown
8:00 PM 42.8 °F 38.7 °F 14.0 °F 31% 30.21 in 5.0 mi ENE 6.7 mph - N/A   Unknown
8:30 PM 41.0 °F 36.5 °F 15.8 °F 36% 30.21 in 5.0 mi ENE 6.7 mph - N/A   Unknown
9:00 PM 34 °F - 25 °F 60% 30.29 in - East 2.2 mph - -  
9:00 PM 39.2 °F 33.1 °F 17.6 °F 42% 30.21 in 5.0 mi ENE 8.9 mph - N/A   Unknown
9:30 PM 37.4 °F 32.2 °F 17.6 °F 45% 30.24 in 5.0 mi East 6.7 mph - N/A   Unknown
10:00 PM 37.4 °F 30.9 °F 24.8 °F 60% 30.24 in 5.0 mi ENE 8.9 mph - N/A   Unknown
10:30 PM 37.4 °F 32.2 °F 24.8 °F 60% 30.24 in 5.0 mi East 6.7 mph - N/A   Unknown
11:00 PM 33.8 °F - 24.8 °F 70% 30.24 in 3.1 mi Variable 2.2 mph - N/A   Smoke
11:30 PM 30.2 °F - 21.2 °F 69% 30.24 in 3.1 mi WNW 2.2 mph - N/A   Mist